Preview of NWS' New Version of Forecast
This preview is not operational and should not be used for support decisions.

Regional Weather Roundup (RWR)

Issued by National Weather Service (NWS)

                            
000
ASUS43 KTOP 222059
RWRKS 

WEATHER ROUNDUP FOR KANSAS
NATIONAL WEATHER SERVICE GOODLAND KS
400 PM CDT THU AUG 22 2019

NOTE:  "FAIR" INDICATES FEW OR NO CLOUDS BELOW 12,000 FEET WITH NO
SIGNIFICANT WEATHER AND/OR OBSTRUCTIONS TO VISIBILITY.

KSZ001>006-013>018-027>032-041>047-222200-
NORTHWEST KANSAS
  
CITY           SKY/WX    TMP DP  RH WIND       PRES   REMARKS
GOODLAND       FAIR      81  64  56 S17G32    29.96F                  
HAYS           PTSUNNY   78  67  68 E14       29.83F                  
HILL CITY      PTSUNNY   83  68  60 S5        29.96F                  
RUSSELL        FAIR      79  66  64 S9        29.97F                  
$$

KSZ061>065-074>080-084>089-222200-
SOUTHWEST KANSAS
  
CITY           SKY/WX    TMP DP  RH WIND       PRES   REMARKS
DODGE CITY     FAIR      84  63  49 S17G26    29.97F                  
GARDEN CITY    FAIR      83  61  47 S12G28    29.96F                  
GREAT BEND     FAIR      76  69  79 S10       29.98F                  
LIBERAL        FAIR      84  64  50 SE14G20   29.96F                  
$$

KSZ066>073-081>083-090>101-222200-
SOUTHEAST KANSAS
  
CITY           SKY/WX    TMP DP  RH WIND       PRES   REMARKS
CHANUTE        FAIR      79  70  74 SE6       29.98F                  
COFFEYVILLE    FAIR      82  71  69 E5        29.95S                  
HUTCHINSON     FAIR      79  66  64 S8        29.95F                  
MEDICINE LODGE   N/A     76  65  68 SE3       29.95F                  
NEWTON         FAIR      75  67  76 CALM      29.98F                  
PARSONS        PTSUNNY   81  72  74 VRB3      29.98S                  
WICHITA INTL   CLOUDY    80  66  62 CALM      29.96F                  
WICHITA JABRA  FAIR      77  71  82 NE3       29.96F                  
WICHITA MCCONL PTSUNNY   79  65  62 CALM      29.96F                  
WINFIELD       FAIR      77  69  76 E6        29.96F                  
$$

KSZ007>012-019>026-033>040-048>060-102>105-222200-
NORTHEAST KANSAS
  
CITY           SKY/WX    TMP DP  RH WIND       PRES   REMARKS
CONCORDIA      PTSUNNY   79  70  74 SE9       29.96F                  
EMPORIA        CLOUDY    77  70  79 S10       29.98S                  
LAWRENCE       FAIR      83  70  64 NE6       29.96F                  
MANHATTAN      FAIR      81  70  69 E7        29.96F                  
OLATHE IND     CLOUDY    79  70  74 NE3       29.98F                  
OLATHE EXE     FAIR      80  70  71 NE9       29.97F                  
SALINA         FAIR      78  69  73 SW6       29.96F                  
TOPEKA BILLARD PTSUNNY   81  70  69 E10       29.96F                  
TOPEKA FORBES  PTSUNNY   82  70  66 E6        29.96F                  
$$